Location: *
(37.5724°S, 58.0067°E)
Time: 11:15:52
(UTC+00:00)

Cosmos 1980 - Pass Details

Date: 26 September 2020
Orbit: 838 x 849 km, 71.0° (Epoch: 30 October)

Event Time Altitude Azimuth Distance (km) Brightness Sun altitude
Rises 23:22:31 0° 203° (SSW) 3,423 6.9 -28.8°
Reaches altitude 10° 23:24:59 10° 203° (SSW) 2,482 6.2 -28.3°
Maximum altitude 23:30:42 87° 289° (WNW) 853 3.5 -27.3°
Drops below altitude 10° 23:36:21 10° 19° (NNE) 2,454 6.0 -26.3°
Sets 23:38:46 0° 19° (NNE) 3,382 6.8 -25.9°
